Regional Weather Roundup
Issued by NWS

Home | Current Version | Previous Version | Text Only | Print | Product List | Glossary On
Versions: 1 2 3 4 5 6 7 8 9 10 11 12 13 14 15 16 17 18 19 20 21 22 23 24 25 26 27 28 29 30 31 32 33 34 35 36 37 38 39 40 41 42 43 44 45 46 47 48 49 50
000
ASUS45 KBOU 291210
RWRCO

WEATHER ROUNDUP FOR COLORADO
NATIONAL WEATHER SERVICE DENVER/BOULDER CO
600 AM MDT WED JUL 29 2015

NOTE: "FAIR" INDICATES FEW OR NO CLOUDS BELOW 12000 FEET WITH NO
SIGNIFICANT WEATHER AND/OR OBSTRUCTIONS TO VISIBILITY.

COZ001>005-013-030-031-291300-
...NORTHWEST COLORADO...

CITY           SKY/WX    TMP DP  RH WIND       PRES   REMARKS
CRAIG          CLEAR     35  30  82 W5        30.37R WCI  31
HAYDEN         CLEAR     45  30  57 E7        30.37R
MEEKER         CLEAR     41  32  70 NE5       30.36R
MOUNT WERNER   NOT AVBL
STEAMBOAT SPGS CLEAR     39  34  81 CALM      30.38S
WALDEN         CLEAR     34  30  86 SE7       30.45R WCI  28
$$

COZ006>008-011-291300-
...WEST CENTRAL VALLEYS...

CITY           SKY/WX    TMP DP  RH WIND       PRES   REMARKS
GRAND JUNCTION CLEAR     59  28  30 CALM      30.21R
MONTROSE       CLEAR     54  35  48 SE9       30.29R
EAGLE          CLEAR     46  36  66 CALM      30.40R
RIFLE          CLEAR     50  35  56 E5        30.30R
DELTA          CLEAR     58  34  40 NE8       30.26R
NUCLA          CLEAR     55  32  41 CALM      30.32R
$$

COZ017>023-064>068-291300-
...SOUTHWEST COLORADO...

CITY           SKY/WX    TMP DP  RH WIND       PRES   REMARKS
DURANGO        PTCLDY    58  40  51 CALM      30.32R
CORTEZ         CLEAR     48  38  68 E7        30.25R
PAGOSA SPRINGS CLOUDY    57  42  58 CALM      30.41R
TELLURIDE      PTCLDY    51  34  52 SE7       30.50R
WOLF CREEK PAS NOT AVBL
$$

COZ009-010-012-014-032>034-037-058>063-291300-
...CENTRAL COLORADO...

CITY           SKY/WX    TMP DP  RH WIND       PRES   REMARKS
ASPEN          CLEAR     45  35  68 S6        30.42R
BUENA VISTA    MOCLDY    48  38  68 W5        30.48R
COPPER MTN     CLEAR     50  32  50 S14G20    30.69R
BERTHOUD PASS  FAIR      43  32  65 W18G25    30.73S
COTTONWOOD PAS CLOUDY    52  36  54 NW3       30.58R
GUNNISON       PTCLDY    45  37  76 CALM      30.45S
KREMMLING      CLEAR     37  32  81 CALM      30.45R
LEADVILLE      PTCLDY    41  35  79 E3        30.56R
MONARCH PASS   CLOUDY    45  36  70 CALM      30.80R
SALIDA         MOCLDY    56  42  59 CALM      30.52R
SUNLIGHT       CLEAR     50  28  43 CALM      30.62S
WILKERSON PASS PTCLDY    43  37  81 SW3       30.68R
$$

COZ069>075-291300-
...SAN LUIS VALLEY/SANGRE DE CRISTO MOUNTAINS...

CITY           SKY/WX    TMP DP  RH WIND       PRES   REMARKS
ALAMOSA        CLOUDY    57  47  69 S7        30.38R
LA VETA PASS   PTCLDY    46  37  71 MISG      30.58R
SAGUACHE       PTCLDY    54  41  62 N9        30.42R
$$

COZ035-036-038>040-291300-
...NORTHERN COLORADO FRONT RANGE...

CITY           SKY/WX    TMP DP  RH WIND       PRES   REMARKS
DENVER INTL AP MOCLDY    58  43  57 SE9       30.31S
DMNS CITY PARK   N/A     60  47  61 SW7       30.31S
AURORA         MOCLDY    61  45  54 S14       30.32F
FRONT RANGE AP NOT AVBL
ERIE MUNI ARPT CLEAR     53  44  73 CALM      30.29S
BOULDER MUN AP CLEAR     57  43  58 CALM      30.30R
CENTENNIAL     PTCLDY    61  44  53 S13       30.33S
BROOMFIELD     MOCLDY    57  43  58 SW5       30.32S
FORT COLLINS   CLEAR     55  45  67 N8        30.32R
LONGMONT       CLEAR     61  43  53 CALM      30.31R
$$

COZ041-046-047-076>085-087-088-291300-
...PIKES PEAK/PALMER DIVIDE AND SOUTHERN FOOTHILLS...

CITY           SKY/WX    TMP DP  RH WIND       PRES   REMARKS
COLO. SPRINGS  MOCLDY    59  46  62 CALM      30.39R
A. F. ACADEMY  CLOUDY    57  43  58 SE3       30.40R
ELLICOTT       PTCLDY   N/A N/A N/A E7        30.36R
FALCON         MOCLDY    55  45  69 CALM      30.42S
FORT CARSON    CLOUDY    62  47  57 VRB3      30.35S
LIMON          CLOUDY    58  49  72 CALM      30.34S
MONUMENT HILL  PTCLDY    50  43  76 SE3       30.42R
TRINIDAD       CLEAR     61  47  59 NW9       30.31R
$$

COZ042>045-048>051-090-091-291300-
...NORTHEAST COLORADO...

CITY           SKY/WX    TMP DP  RH WIND       PRES   REMARKS
GREELEY ARPT   PTCLDY    54  45  71 NE3       30.31R
AKRON          PTCLDY    60  46  59 S10       30.32R
BURLINGTON     PTCLDY    58  51  78 S6        30.30S
WRAY           PTCLDY    54  53  97 CALM      30.29S
STERLING       NOT AVBL
HOLYOKE        PTCLDY    54  48  82 CALM      30.30R
FORT MORGAN    CLOUDY    57  45  63 NE7       30.31R
$$

COZ086-089-092>099-291300-
...SOUTHEAST COLORADO...

CITY           SKY/WX    TMP DP  RH WIND       PRES   REMARKS
PUEBLO         MOCLDY    68  49  50 N8        30.27R
LA JUNTA       CLOUDY    66  54  65 NE6       30.23R
LAMAR          MOCLDY    63  57  81 NE6       30.18F
SPRINGFIELD      N/A     62  61  96 E3        30.23R
$$



USA.gov is the U.S. government's official web portal to all federal, state and local government web resources and services.